Weather History for Coffeyville, KS

Change the Weather History Date:

Tuesday, February 19, 2013

  Actual Average Record
Temperature  
Mean Temperature 36 °F -  
Max Temperature 46 °F 49 °F 75 °F (2011)
Min Temperature 25 °F 30 °F 17 °F (2006)
Degree Days  
Heating Degree Days 30    
Moisture  
Dew Point 19 °F    
Average Humidity 58    
Maximum Humidity 81    
Minimum Humidity 30    
Precipitation  
Precipitation 0.00 in - - ()
Sea Level Pressure  
Sea Level Pressure 30.29 in    
Wind  
Wind Speed 4 mph (North)    
Max Wind Speed 13 mph    
Max Gust Speed 18 mph    
Visibility 10 miles    
Events      
Averages and records for this station are not official NWS values.
T = Trace of Precipitation, MM = Missing Value Source: NWS Daily Summary

Daily Weather History Graph

Daily Weather History Graph

Search for Another Location

Airport:

Trip Planner

Search our weather history database for the weather conditions in past years. The results will help you decide how hot, cold, wet, or windy it might be!

Date:

Astronomy

Feb. 19, 2013 Rise Set
Actual Time 7:05 AM CST 6:06 PM CST
Civil Twilight 6:39 AM CST 6:33 PM CST
Nautical Twilight 6:09 AM CST 7:03 PM CST
Astronomical Twilight 5:39 AM CST 7:33 PM CST
Moon 12:43 PM CST (2/19) 2:34 AM CST (2/19)
Length of Visible Light 11h 53m
Length of Day
11h 00m
Waxing Gibbous, 67% of the Moon is Illuminated
Feb 19
Waxing Gibbous
Feb 25
Full
Mar 4
Last Quarter
Mar 11
New
Mar 19
First Quarter

Hourly Weather History & Observations

Time (CST) Temp. Windchill Dew Point Humidity Pressure Visibility Wind Dir Wind Speed Gust Speed Precip Events Conditions
12:52 AM 33.1 °F - 21.9 °F 64% 30.19 in 10.0 mi Calm Calm - N/A   Clear
1:52 AM 28.0 °F - 21.0 °F 75% 30.20 in 10.0 mi Calm Calm - N/A   Clear
2:52 AM 25.0 °F 20.7 °F 19.9 °F 81% 30.20 in 10.0 mi North 3.5 mph - N/A   Clear
3:52 AM 25.0 °F 20.7 °F 19.9 °F 81% 30.20 in 10.0 mi WNW 3.5 mph - N/A   Clear
4:52 AM 25.0 °F 20.7 °F 19.9 °F 81% 30.23 in 10.0 mi SW 3.5 mph - N/A   Clear
5:52 AM 25.0 °F - 19.9 °F 81% 30.25 in 10.0 mi Calm Calm - N/A   Clear
6:52 AM 25.0 °F 19.3 °F 19.9 °F 81% 30.27 in 10.0 mi WNW 4.6 mph - N/A   Clear
7:52 AM 27.0 °F - 21.0 °F 78% 30.30 in 10.0 mi Calm Calm - N/A   Clear
8:52 AM 32.0 °F 23.6 °F 21.9 °F 66% 30.33 in 10.0 mi North 10.4 mph - N/A   Clear
9:52 AM 37.0 °F 28.9 °F 19.0 °F 48% 30.35 in 10.0 mi NNW 12.7 mph - N/A   Clear
10:52 AM 39.0 °F 31.8 °F 17.1 °F 41% 30.38 in 10.0 mi NNW 11.5 mph - N/A   Clear
12:52 PM 43.0 °F 37.2 °F 17.1 °F 35% 30.36 in 10.0 mi WNW 10.4 mph 16.1 mph N/A   Clear
1:52 PM 45.0 °F 39.3 °F 17.1 °F 33% 30.35 in 10.0 mi NW 11.5 mph 18.4 mph N/A   Clear
2:52 PM 46.9 °F - 18.0 °F 32% 30.31 in 10.0 mi North 11.5 mph 16.1 mph N/A   Clear
3:52 PM 46.9 °F - 17.1 °F 30% 30.30 in 10.0 mi NNW 9.2 mph - N/A   Clear
4:52 PM 46.0 °F 43.9 °F 17.1 °F 31% 30.28 in 10.0 mi Variable 4.6 mph - N/A   Clear
6:52 PM 39.9 °F 36.7 °F 16.0 °F 38% 30.30 in 10.0 mi East 4.6 mph - N/A   Clear
7:52 PM 32.0 °F 26.4 °F 18.0 °F 56% 30.29 in 10.0 mi ENE 5.8 mph - N/A   Clear
8:52 PM 33.1 °F - 18.0 °F 54% 30.31 in 10.0 mi Calm Calm - N/A   Clear
9:52 PM 28.9 °F 22.8 °F 19.0 °F 67% 30.32 in 10.0 mi ENE 5.8 mph - N/A   Clear
10:52 PM 30.0 °F 24.1 °F 19.0 °F 64% 30.31 in 10.0 mi ENE 5.8 mph - N/A   Clear
11:52 PM 28.9 °F 22.8 °F 19.0 °F 67% 30.33 in 10.0 mi NE 5.8 mph - N/A   Clear